Hourly Data Report for September 16, 2017

All times are specified in Local Standard Time (LST). Add 1 hour to adjust for Daylight Saving Time where and when it is observed.

DOAKTOWN AUTO RCS
NEW BRUNSWICK

46°35'06.090" N
66°00'35.071" W
43.00 m
8101201
71038
ADN

Download Data

Hourly Data (September 2017)
Hourly Data Report for September 16, 2017
Temp Definition
°C
Dew Point Temp Definition
°C
Rel Hum Definition
%
Wind Dir Definition
10's deg

Wind Spd Definition
km/h
Visibility Definition
km
Stn Press Definition
kPa
Hmdx Definition


Wind Chill Definition


Weather Definition


TIME
00:00 10.9 10.2 95   0   101.39     LegendNANA
01:00 10.2 9.5 95 12 2   101.36     LegendNANA
02:00 9.9 9.3 96 26 1   101.33     LegendNANA
03:00 9.5 8.9 96 23 4   101.37     LegendNANA
04:00 9.2 8.6 96 22 2   101.35     LegendNANA
05:00 8.9 8.4 96 21 2   101.34     LegendNANA
06:00 9.0 8.5 97 26 2   101.32     LegendNANA
07:00 10.1 9.6 97   0   101.38     LegendNANA
08:00 12.6 12.1 97   0   101.37     LegendNANA
09:00 15.5 14.8 96 24 6   101.37     LegendNANA
10:00 20.0 16.0 78 23 7   101.31 25   LegendNANA
11:00 22.6 16.1 67 25 9   101.25 27   LegendNANA
12:00 25.0 17.1 62 25 12   101.22 30   LegendNANA
13:00 26.3 16.3 54 25 14   101.21 31   LegendNANA
14:00 27.8 16.6 51 23 7   101.16 33   LegendNANA
15:00 28.2 15.8 47 28 9   101.19 33   LegendNANA
16:00 23.3 13.2 53 33 15   101.29 26   LegendNANA
17:00 19.1 13.2 69 5 15   101.41     LegendNANA
18:00 17.4 12.0 71 5 13   101.49     LegendNANA
19:00 15.9 11.0 73 7 11   101.52     LegendNANA
20:00 14.9 11.0 78 6 6   101.57     LegendNANA
21:00 13.9 11.0 83 5 7   101.62     LegendNANA
22:00 13.8 10.9 83 6 5   101.66     LegendNANA
23:00 13.6 10.7 83 2 6   101.70     LegendNANA

Notes on Data Quality.

Legend

  • E = Estimated
  • M = Missing
  • NA = Not Available
  • ‡ = Partner data that is not subject to review by the National Climate Archives
Date modified: